Date,TemperatureHighF,TemperatureAvgF,TemperatureLowF,DewpointHighF,DewpointAvgF,DewpointLowF,HumidityHigh,HumidityAvg,HumidityLow,PressureMaxIn,PressureMinIn,WindSpeedMaxMPH,WindSpeedAvgMPH,GustSpeedMaxMPH,PrecipitationSumIn
2013-3-1,60.2,49.2,39.8,35.0,31.1,25.0,75,53,26,30.24,30.12,17,5,28,0.00
2013-3-2,50.5,42.7,34.9,34.0,29.0,24.0,82,60,39,30.31,30.20,16,5,27,0.00
2013-3-3,60.7,46.3,30.1,46.0,32.4,23.0,92,63,27,30.31,30.08,15,3,15,0.00
2013-3-4,71.5,63.5,53.3,61.0,56.6,46.0,89,79,64,30.06,29.86,27,9,36,0.00
2013-3-5,70.1,63.4,49.7,63.0,47.5,30.0,93,61,24,30.29,29.86,17,6,30,0.00
2013-3-6,65.6,50.8,36.6,35.0,27.9,20.0,71,45,18,30.41,30.24,13,3,17,0.00
2013-3-7,64.7,53.1,41.6,45.0,36.9,32.0,88,57,31,30.34,30.21,11,2,12,0.00
2013-3-8,70.0,57.2,42.5,55.0,47.7,41.0,95,73,49,30.27,30.11,11,3,17,0.00
2013-3-9,70.8,63.9,57.7,63.0,59.7,50.0,94,86,73,30.11,29.85,13,5,29,0.00
2013-3-10,70.4,62.1,55.4,66.0,58.9,46.0,95,90,69,29.98,29.81,19,4,27,0.23
2013-3-11,59.7,50.8,41.9,45.0,35.2,30.0,80,56,36,30.10,29.96,21,5,25,0.00
2013-3-12,69.8,52.5,34.8,46.0,36.5,31.0,94,61,26,30.26,30.08,9,2,11,0.00
2013-3-13,70.0,55.3,41.6,44.0,36.4,28.0,93,56,21,30.45,30.26,14,4,21,0.00
2013-3-14,69.4,55.3,40.9,48.0,38.6,31.0,90,59,26,30.45,30.32,14,3,14,0.00
2013-3-15,73.2,59.7,44.7,59.0,52.8,44.0,97,80,52,30.32,30.09,23,5,25,0.00
2013-3-16,74.5,65.8,57.9,62.0,58.7,56.0,97,80,54,30.09,29.92,19,6,23,0.00
2013-3-17,75.9,68.4,63.1,68.0,64.7,60.0,97,88,74,29.93,29.77,16,5,25,0.00
2013-3-18,81.0,71.1,67.4,69.0,67.2,66.0,98,88,64,29.91,29.75,14,5,19,0.00
2013-3-19,77.0,66.3,55.4,66.0,51.2,42.0,91,60,44,30.01,29.91,14,7,22,0.00
2013-3-20,72.9,63.1,51.2,51.0,40.8,28.0,92,49,20,30.20,30.05,19,7,23,0.09
2013-3-21,69.3,59.9,49.9,57.0,44.6,36.0,81,58,32,30.07,29.78,19,4,23,0.00
2013-3-22,79.0,70.1,60.7,70.0,66.0,57.0,96,87,72,29.80,29.69,19,6,24,0.00
2013-3-23,74.0,70.0,67.8,70.0,68.5,67.0,98,95,85,29.77,29.58,10,3,13,0.00
2013-3-24,68.9,59.0,45.7,67.0,44.9,29.0,94,63,30,30.11,29.63,23,8,33,0.00
2013-3-25,59.8,47.9,36.9,34.0,27.3,19.0,79,49,21,30.35,30.12,18,5,23,0.00
2013-3-26,58.7,46.5,32.3,32.0,25.3,20.0,76,46,25,30.48,30.32,18,4,20,0.00
2013-3-27,64.5,51.0,36.2,43.0,37.1,31.0,86,61,35,30.43,30.25,9,2,15,0.00
2013-3-28,71.8,57.7,44.3,56.0,49.7,41.0,92,76,52,30.34,30.22,12,3,16,0.00
2013-3-29,73.3,63.6,55.0,61.0,57.5,54.0,96,82,61,30.29,30.16,18,4,22,0.00
2013-3-30,73.7,66.6,60.6,64.0,61.1,59.0,96,84,63,30.19,30.01,15,4,22,0.00
2013-3-31,77.3,64.7,57.9,68.0,62.7,57.0,98,94,71,30.02,29.89,19,6,34,0.63